Radiation Dose at Monitoring Post of Fukushima Daini Nuclear Power Station
Date,Time,MP-1(microSv/h),MP-2(microSv/h),MP-3(microSv/h),MP-4(microSv/h),MP-5(microSv/h),MP-6(microSv/h),MP-7(microSv/h),Wind Direction,Wind Velocity(m/s),Rain
2016/10/25,00:00,0.418,0.250,0.432,0.397,0.371,0.202,0.175,west,7.4,No
2016/10/25,00:10,0.419,0.250,0.433,0.395,0.371,0.202,0.174,west,6.6,No
2016/10/25,00:20,0.417,0.251,0.431,0.395,0.368,0.203,0.175,west,5.8,No
2016/10/25,00:30,0.420,0.250,0.432,0.394,0.373,0.204,0.175,west,5.6,No
2016/10/25,00:40,0.418,0.250,0.435,0.394,0.370,0.202,0.174,west,6.6,No
2016/10/25,00:50,0.417,0.251,0.430,0.395,0.370,0.203,0.176,west,5.7,No
2016/10/25,01:00,0.421,0.250,0.433,0.393,0.372,0.203,0.175,west,5.4,No
2016/10/25,01:10,0.418,0.251,0.432,0.397,0.369,0.203,0.175,west,4.5,No
2016/10/25,01:20,0.418,0.251,0.431,0.395,0.369,0.203,0.176,west,4.9,No
2016/10/25,01:30,0.418,0.252,0.434,0.394,0.372,0.203,0.175,west,5.1,No
2016/10/25,01:40,0.417,0.250,0.432,0.397,0.369,0.204,0.174,west,4.8,No
2016/10/25,01:50,0.418,0.251,0.433,0.395,0.369,0.203,0.175,west,5.2,No
2016/10/25,02:00,0.419,0.252,0.433,0.395,0.372,0.203,0.176,west-northwest,5.3,No
2016/10/25,02:10,0.420,0.251,0.431,0.394,0.370,0.203,0.175,west-northwest,5.6,No
2016/10/25,02:20,0.418,0.251,0.434,0.395,0.372,0.203,0.175,west-northwest,5.3,No
2016/10/25,02:30,0.418,0.250,0.434,0.397,0.371,0.203,0.176,west-northwest,6.2,No
2016/10/25,02:40,0.417,0.251,0.431,0.396,0.368,0.202,0.175,west-northwest,8.5,No
2016/10/25,02:50,0.417,0.251,0.433,0.394,0.370,0.203,0.176,west-northwest,8.9,No
2016/10/25,03:00,0.419,0.251,0.431,0.396,0.370,0.203,0.175,west-northwest,8.3,No
2016/10/25,03:10,0.419,0.251,0.433,0.394,0.371,0.204,0.176,west-northwest,5.7,No
2016/10/25,03:20,0.417,0.252,0.434,0.394,0.369,0.203,0.176,west-northwest,3.8,No
2016/10/25,03:30,0.420,0.251,0.430,0.396,0.370,0.203,0.175,west-northwest,1.9,No
2016/10/25,03:40,0.418,0.250,0.432,0.394,0.370,0.203,0.176,west-northwest,4.2,No
2016/10/25,03:50,0.418,0.250,0.433,0.395,0.371,0.203,0.175,west-northwest,5.6,No
2016/10/25,04:00,0.420,0.250,0.430,0.394,0.372,0.202,0.175,west,5.8,No
2016/10/25,04:10,0.418,0.250,0.434,0.394,0.370,0.203,0.176,west,5.1,No
2016/10/25,04:20,0.420,0.252,0.433,0.395,0.372,0.202,0.175,west-southwest,3.2,No
2016/10/25,04:30,0.418,0.251,0.432,0.394,0.370,0.203,0.176,west,1.8,No
2016/10/25,04:40,0.417,0.251,0.432,0.394,0.370,0.203,0.177,west,1.3,No
2016/10/25,04:50,0.420,0.251,0.432,0.398,0.370,0.203,0.175,west-northwest,0.8,No
2016/10/25,05:00,0.419,0.250,0.430,0.395,0.369,0.203,0.175,northwest,1.5,No
2016/10/25,05:10,0.417,0.250,0.433,0.396,0.371,0.204,0.175,west-northwest,2.7,No
2016/10/25,05:20,0.419,0.251,0.433,0.396,0.371,0.202,0.175,west-northwest,2.5,No
2016/10/25,05:30,0.417,0.250,0.432,0.395,0.370,0.203,0.176,north,1.4,No
2016/10/25,05:40,0.418,0.251,0.434,0.395,0.369,0.203,0.176,northwest,1.0,No
2016/10/25,05:50,0.418,0.250,0.431,0.396,0.371,0.204,0.175,west,0.9,No
2016/10/25,06:00,0.417,0.251,0.432,0.395,0.370,0.203,0.175,south,0.9,No
2016/10/25,06:10,0.418,0.251,0.433,0.395,0.368,0.203,0.175,south-southwest,1.6,No
2016/10/25,06:20,0.417,0.251,0.432,0.396,0.373,0.203,0.175,south-southwest,1.4,No
2016/10/25,06:30,0.421,0.250,0.431,0.395,0.371,0.203,0.175,southwest,2.7,No
2016/10/25,06:40,0.418,0.251,0.434,0.396,0.369,0.202,0.175,southwest,3.1,No
2016/10/25,06:50,0.417,0.251,0.433,0.395,0.370,0.203,0.175,south-southwest,3.1,No
2016/10/25,07:00,0.419,0.250,0.433,0.395,0.370,0.204,0.174,south-southwest,3.9,No
2016/10/25,07:10,0.419,0.250,0.435,0.394,0.369,0.204,0.174,south-southwest,3.5,No
2016/10/25,07:20,0.418,0.251,0.432,0.394,0.370,0.204,0.173,south-southwest,3.6,No
2016/10/25,07:30,0.421,0.252,0.430,0.394,0.371,0.204,0.175,south-southwest,3.9,No
2016/10/25,07:40,0.419,0.251,0.434,0.395,0.370,0.204,0.173,south,2.9,No
2016/10/25,07:50,0.418,0.252,0.431,0.393,0.368,0.204,0.176,south-southwest,3.2,No
2016/10/25,08:00,0.420,0.253,0.431,0.395,0.370,0.203,0.175,south,2.6,No
2016/10/25,08:10,0.416,0.252,0.432,0.393,0.369,0.204,0.175,south,2.3,No
2016/10/25,08:20,0.418,0.250,0.430,0.395,0.372,0.204,0.174,south,2.2,No
2016/10/25,08:30,0.419,0.250,0.432,0.392,0.370,0.202,0.174,south,2.4,No
2016/10/25,08:40,0.417,0.249,0.433,0.395,0.369,0.204,0.175,south-southwest,2.7,No
2016/10/25,08:50,0.417,0.251,0.430,0.390,0.372,0.202,0.175,south,2.3,No
2016/10/25,09:00,0.416,0.249,0.435,0.394,0.368,0.203,0.173,south-southeast,1.1,No
2016/10/25,09:10,0.417,0.250,0.431,0.392,0.370,0.203,0.175,southeast,2.2,No
2016/10/25,09:20,0.415,0.249,0.432,0.394,0.367,0.203,0.175,south-southeast,2.6,No
2016/10/25,09:30,0.418,0.250,0.433,0.395,0.371,0.205,0.173,south,3.2,No
2016/10/25,09:40,0.413,0.250,0.431,0.391,0.367,0.202,0.176,south,3.4,No
2016/10/25,09:50,0.415,0.249,0.433,0.395,0.369,0.204,0.175,south,3.1,No
2016/10/25,10:00,0.418,0.251,0.431,0.393,0.370,0.202,0.173,south,3.6,No
2016/10/25,10:10,0.414,0.251,0.434,0.392,0.366,0.204,0.176,south,4.7,No
2016/10/25,10:20,0.412,0.249,0.430,0.394,0.371,0.203,0.175,south,5.3,No
2016/10/25,10:30,0.417,0.251,0.433,0.394,0.371,0.202,0.175,south,7.1,No
2016/10/25,10:40,0.416,0.250,0.431,0.392,0.367,0.204,0.175,south,7.8,No
2016/10/25,10:50,0.413,0.249,0.432,0.395,0.370,0.203,0.176,south,6.4,No
2016/10/25,11:00,0.412,0.250,0.429,0.396,0.371,0.203,0.174,south-southeast,7.5,No
2016/10/25,11:10,0.416,0.249,0.431,0.392,0.367,0.204,0.175,south,8.2,No
2016/10/25,11:20,0.419,0.249,0.430,0.393,0.370,0.203,0.175,south,9.5,No
2016/10/25,11:30,0.413,0.251,0.433,0.397,0.372,0.204,0.174,south,8.5,No
2016/10/25,11:40,0.413,0.250,0.430,0.393,0.367,0.202,0.175,south,10.1,No
2016/10/25,11:50,0.419,0.249,0.430,0.392,0.369,0.203,0.176,south,9.5,No
2016/10/25,12:00,0.415,0.251,0.433,0.394,0.370,0.203,0.174,south,10.1,No
2016/10/25,12:10,0.418,0.251,0.428,0.395,0.368,0.202,0.174,south,9.5,No
2016/10/25,12:20,0.419,0.251,0.433,0.395,0.372,0.204,0.176,south,11.6,No
2016/10/25,12:30,0.416,0.252,0.431,0.397,0.370,0.203,0.175,south,10.7,No
2016/10/25,12:40,0.420,0.250,0.430,0.393,0.367,0.202,0.175,south,10.2,No
2016/10/25,12:50,0.417,0.253,0.432,0.393,0.371,0.205,0.174,south,9.3,No
2016/10/25,13:00,0.419,0.251,0.430,0.397,0.369,0.202,0.173,south,10.9,No
2016/10/25,13:10,0.417,0.247,0.427,0.394,0.366,0.203,0.174,south,9.8,No
2016/10/25,13:20,0.416,0.251,0.431,0.391,0.370,0.203,0.174,south,10.4,No
2016/10/25,13:30,0.418,0.251,0.431,0.397,0.371,0.204,0.174,south,11.6,No
2016/10/25,13:40,0.417,0.253,0.431,0.394,0.370,0.204,0.175,south-southwest,11.2,No
2016/10/25,13:50,0.417,0.251,0.433,0.396,0.371,0.203,0.174,south-southwest,5.6,No
2016/10/25,14:00,0.416,0.251,0.432,0.395,0.369,0.204,0.175,south-southwest,9.5,No
2016/10/25,14:10,0.418,0.253,0.434,0.397,0.372,0.203,0.174,south-southwest,12.6,No
2016/10/25,14:20,0.416,0.250,0.430,0.397,0.368,0.204,0.174,south-southwest,10.5,No
2016/10/25,14:30,0.418,0.252,0.434,0.394,0.371,0.204,0.175,south,10.6,No
2016/10/25,14:40,0.418,0.250,0.430,0.397,0.368,0.204,0.175,south-southwest,10.8,No
2016/10/25,14:50,0.415,0.252,0.433,0.395,0.370,0.203,0.175,south-southwest,5.8,No
2016/10/25,15:00,0.419,0.251,0.430,0.397,0.369,0.203,0.175,southwest,1.9,No
2016/10/25,15:10,0.417,0.250,0.434,0.393,0.369,0.204,0.175,southwest,2.8,Yes
2016/10/25,15:20,0.421,0.252,0.430,0.396,0.369,0.202,0.173,west-southwest,2.0,No
2016/10/25,15:30,0.415,0.250,0.433,0.395,0.368,0.205,0.176,south,7.8,Yes
2016/10/25,15:40,0.419,0.254,0.431,0.396,0.370,0.203,0.174,south,6.8,No
2016/10/25,15:50,0.415,0.251,0.435,0.395,0.369,0.204,0.177,south-southwest,6.7,Yes
2016/10/25,16:00,0.419,0.252,0.432,0.397,0.370,0.204,0.175,south-southwest,8.5,Yes
2016/10/25,16:10,0.417,0.251,0.435,0.394,0.369,0.203,0.176,south-southwest,10.9,Yes
2016/10/25,16:20,0.419,0.252,0.432,0.395,0.371,0.204,0.176,south-southwest,10.3,Yes
2016/10/25,16:30,0.418,0.251,0.434,0.397,0.371,0.204,0.176,south-southwest,12.9,Yes
2016/10/25,16:40,0.420,0.254,0.433,0.397,0.371,0.205,0.177,south-southwest,12.6,Yes
2016/10/25,16:50,0.417,0.252,0.435,0.396,0.374,0.203,0.177,south-southwest,13.6,Yes
2016/10/25,17:00,0.419,0.252,0.432,0.397,0.370,0.205,0.176,south-southwest,14.0,Yes
2016/10/25,17:10,0.417,0.252,0.434,0.396,0.372,0.204,0.177,south-southwest,13.5,Yes
2016/10/25,17:20,0.419,0.252,0.434,0.399,0.369,0.205,0.175,south-southwest,12.5,Yes
2016/10/25,17:30,0.417,0.251,0.433,0.396,0.371,0.204,0.176,south-southwest,14.3,Yes
2016/10/25,17:40,0.420,0.253,0.432,0.397,0.370,0.205,0.176,south-southwest,13.7,Yes
2016/10/25,17:50,0.417,0.251,0.435,0.396,0.371,0.204,0.176,south-southwest,13.9,Yes
2016/10/25,18:00,0.419,0.253,0.431,0.397,0.371,0.205,0.176,south-southwest,12.6,Yes
2016/10/25,18:10,0.419,0.253,0.433,0.395,0.370,0.203,0.176,south-southwest,14.5,No
2016/10/25,18:20,0.419,0.252,0.433,0.396,0.371,0.205,0.176,south-southwest,11.4,Yes
2016/10/25,18:30,0.417,0.252,0.433,0.396,0.371,0.205,0.174,south-southwest,13.4,Yes
2016/10/25,18:40,0.418,0.251,0.434,0.396,0.371,0.204,0.177,south-southwest,15.1,Yes
2016/10/25,18:50,0.416,0.252,0.434,0.397,0.370,0.204,0.177,south-southwest,13.0,Yes
2016/10/25,19:00,0.419,0.252,0.434,0.397,0.372,0.204,0.177,south-southwest,13.9,Yes
2016/10/25,19:10,0.417,0.252,0.433,0.398,0.370,0.205,0.176,south-southwest,14.5,Yes
2016/10/25,19:20,0.417,0.251,0.434,0.396,0.373,0.204,0.177,south-southwest,15.1,Yes
2016/10/25,19:30,0.419,0.253,0.432,0.397,0.370,0.204,0.176,south-southwest,12.3,Yes
2016/10/25,19:40,0.418,0.252,0.434,0.396,0.371,0.204,0.175,south-southwest,13.2,No
2016/10/25,19:50,0.419,0.252,0.432,0.397,0.370,0.205,0.176,south-southwest,12.2,No
2016/10/25,20:00,0.418,0.251,0.435,0.396,0.371,0.204,0.177,south-southwest,13.6,No
2016/10/25,20:10,0.420,0.252,0.432,0.397,0.370,0.204,0.176,south-southwest,10.6,No
2016/10/25,20:20,0.418,0.251,0.434,0.397,0.369,0.204,0.175,south-southwest,11.5,No
2016/10/25,20:30,0.418,0.252,0.431,0.398,0.370,0.204,0.175,south-southwest,11.2,No
2016/10/25,20:40,0.416,0.251,0.434,0.394,0.371,0.203,0.176,south-southwest,10.4,Yes
2016/10/25,20:50,0.419,0.252,0.431,0.398,0.370,0.204,0.176,south-southwest,11.3,Yes
2016/10/25,21:00,0.417,0.251,0.434,0.396,0.370,0.203,0.175,south-southwest,11.2,Yes
2016/10/25,21:10,0.420,0.252,0.431,0.398,0.373,0.204,0.175,south,12.9,Yes
2016/10/25,21:20,0.418,0.252,0.433,0.395,0.370,0.203,0.175,south-southwest,13.0,Yes
2016/10/25,21:30,0.420,0.253,0.431,0.398,0.372,0.205,0.176,south-southwest,12.1,Yes
2016/10/25,21:40,0.418,0.252,0.435,0.394,0.369,0.204,0.176,south-southwest,12.7,Yes
2016/10/25,21:50,0.420,0.252,0.432,0.398,0.371,0.204,0.176,south-southwest,11.4,No
2016/10/25,22:00,0.416,0.250,0.434,0.396,0.369,0.204,0.176,south-southwest,9.3,No
2016/10/25,22:10,0.419,0.252,0.430,0.397,0.372,0.204,0.175,south-southwest,8.8,No
2016/10/25,22:20,0.416,0.252,0.433,0.396,0.368,0.203,0.176,south-southwest,9.2,No
2016/10/25,22:30,0.418,0.252,0.431,0.396,0.372,0.204,0.174,south-southwest,12.1,No
2016/10/25,22:40,0.415,0.251,0.433,0.396,0.370,0.203,0.175,south-southwest,12.1,No
2016/10/25,22:50,0.420,0.251,0.430,0.399,0.373,0.204,0.174,south-southwest,12.8,No
2016/10/25,23:00,0.416,0.253,0.434,0.397,0.368,0.204,0.175,south,13.3,No
2016/10/25,23:10,0.419,0.251,0.432,0.400,0.370,0.204,0.175,south-southwest,11.5,No
2016/10/25,23:20,0.416,0.252,0.433,0.395,0.371,0.203,0.175,south-southwest,14.4,No
2016/10/25,23:30,0.420,0.250,0.432,0.397,0.370,0.203,0.175,south-southwest,11.3,No
2016/10/25,23:40,0.417,0.252,0.433,0.395,0.370,0.204,0.176,south-southwest,9.8,Yes
2016/10/25,23:50,0.420,0.250,0.435,0.397,0.368,0.203,0.174,south-southwest,11.0,Yes
